FW5313 Weather Reports


Display with metric or nautical units.
time (UTC)temp
F
wind
direction
speed
MPH
gust
MPH
rain 1hr
in
rain 24hr
in
rain mn
in
humidity
%
barometer
mb
20260505034555 52 56 0.0 2.0 0.00 0.00 0.00 64 1005.5
20260505034046 52 64 1.0 2.0 0.00 0.00 0.00 63 1005.6
20260505033546 52 63 1.0 2.0 0.00 0.00 0.00 64 1005.5
20260505033054 52 46 0.0 1.0 0.00 0.00 0.00 63 1005.5
20260505032546 53 58 1.0 2.0 0.00 0.00 0.00 63 1005.4
20260505032049 53 0 0.0 2.0 0.00 0.00 0.00 63 1005.5
20260505031553 53 79 0.0 2.0 0.00 0.00 0.00 63 1005.4
20260505031045 53 0 0.0 3.0 0.00 0.00 0.00 63 1005.5
20260505030544 53 107 1.0 3.0 0.00 0.00 0.00 59 1005.5
20260505025546 53 76 0.0 3.0 0.00 0.00 0.00 63 1005.7
20260505025044 53 66 0.0 3.0 0.00 0.00 0.00 64 1005.7
20260505024551 53 24 1.0 3.0 0.00 0.00 0.00 62 1005.7
20260505024045 53 104 0.0 1.0 0.00 0.00 0.00 63 1005.6
20260505023542 54 105 1.0 1.0 0.00 0.00 0.00 63 1005.6
20260505023050 54 105 0.0 1.0 0.00 0.00 0.00 61 1005.4
20260505022545 54 105 1.0 1.0 0.00 0.00 0.00 61 1005.5
20260505022042 54 114 1.0 2.0 0.00 0.00 0.00 60 1005.4
20260505021558 54 0 1.0 2.0 0.00 0.00 0.00 62 1005.4
20260505021042 54 99 0.0 2.0 0.00 0.00 0.00 61 1005.5
20260505020545 54 99 1.0 3.0 0.00 0.00 0.00 61 1005.6
20260505015546 54 0 1.0 3.0 0.00 0.00 0.00 60 1005.6
20260505015047 54 87 0.0 2.0 0.00 0.00 0.00 60 1005.6
20260505014551 54 87 0.0 3.0 0.00 0.00 0.00 60 1005.7
20260505014042 54 87 0.0 3.0 0.00 0.00 0.00 59 1005.8
20260505013545 54 193 0.0 1.0 0.00 0.00 0.00 59 1005.7
20260505013050 55 193 1.0 1.0 0.00 0.00 0.00 60 1005.8
20260505012545 55 0 0.0 1.0 0.00 0.00 0.00 60 1005.7
20260505012046 55 193 0.0 1.0 0.00 0.00 0.00 59 1005.6
20260505011550 55 0 0.0 1.0 0.00 0.00 0.00 58 1005.6
20260505011044 55 193 0.0 1.0 0.00 0.00 0.00 59 1005.5
20260505010546 56 193 0.0 2.0 0.00 0.00 0.00 56 1005.5
20260505010106 56 0 0.0 2.0 0.00 0.00 0.00 55 1005.4
20260505005545 56 285 0.0 2.0 0.00 0.00 0.00 53 1005.4
20260505005043 56 164 0.0 5.0 0.00 0.00 0.00 56 1005.4
20260505004551 56 0 0.0 5.0 0.00 0.00 0.00 54 1005.3
20260505004045 55 193 0.0 1.0 0.00 0.00 0.00 57 1005.4
20260505003543 55 193 0.0 2.0 0.00 0.00 0.00 58 1005.1
20260505003052 56 193 0.0 2.0 0.00 0.00 0.00 57 1005.0
20260505002548 56 193 0.0 1.0 0.00 0.00 0.00 57 1005.0
20260505002046 56 193 0.0 1.0 0.00 0.00 0.00 54 1005.0
20260505001552 56 193 0.0 1.0 0.00 0.00 0.00 55 1004.9
20260505001047 57 193 0.0 4.0 0.00 0.00 0.00 52 1004.8
20260505000545 58 193 1.0 4.0 0.00 0.00 0.00 52 1004.9
20260505000059 58 0 0.0 4.0 0.00 0.00 0.00 51 1004.9
20260504235550 58 0 0.0 3.0 0.00 0.00 0.00 51 1004.8
20260504235045 58 0 0.0 3.0 0.00 0.00 0.00 51 1004.7
20260504234552 59 285 0.0 3.0 0.00 0.00 0.00 48 1004.6
20260504234043 59 0 1.0 4.0 0.00 0.00 0.00 48 1004.5
20260504233548 60 193 1.0 4.0 0.00 0.00 0.00 47 1004.4
20260504233054 60 0 0.0 4.0 0.00 0.00 0.00 48 1004.5
20260504232545 60 193 0.0 8.0 0.00 0.00 0.00 48 1004.4
20260504232043 60 193 1.0 8.0 0.00 0.00 0.00 46 1004.3
20260504231552 61 193 3.0 8.0 0.00 0.00 0.00 46 1004.2
20260504231045 61 193 0.0 4.0 0.00 0.00 0.00 47 1004.2
20260504230545 61 193 1.0 5.0 0.00 0.00 0.00 47 1004.2
20260504230112 62 283 1.0 5.0 0.00 0.00 0.00 45 1004.0
20260504225548 62 203 1.0 6.0 0.00 0.00 0.00 43 1004.0
20260504225049 62 221 1.0 6.0 0.00 0.00 0.00 42 1003.9
20260504224606 63 270 2.0 5.0 0.00 0.00 0.00 42 1004.0
20260504224045 63 230 1.0 14.0 0.00 0.00 0.00 44 1003.9
20260504223545 63 257 3.0 14.0 0.00 0.00 0.00 43 1003.8
20260504223051 63 286 2.0 6.0 0.00 0.00 0.00 42 1003.8
20260504222545 63 199 1.0 5.0 0.00 0.00 0.00 42 1003.8
20260504222044 63 193 2.0 5.0 0.00 0.00 0.00 42 1003.9
20260504221550 64 240 2.0 5.0 0.00 0.00 0.00 42 1003.9
20260504221045 64 258 1.0 4.0 0.00 0.00 0.00 45 1003.8
20260504220545 64 252 1.0 4.0 0.00 0.00 0.00 44 1004.0
20260504220100 64 253 2.0 4.0 0.00 0.00 0.00 41 1003.8
20260504215545 64 229 2.0 6.0 0.00 0.00 0.00 41 1003.7
20260504215043 64 227 2.0 6.0 0.00 0.00 0.00 40 1003.7
20260504214550 64 231 3.0 11.0 0.00 0.00 0.00 40 1003.6
20260504214044 64 175 2.0 11.0 0.00 0.00 0.00 43 1003.6
20260504213543 64 178 3.0 11.0 0.00 0.00 0.00 43 1003.6
20260504213051 64 178 2.0 7.0 0.00 0.00 0.00 42 1003.6
20260504212544 64 178 2.0 7.0 0.00 0.00 0.00 41 1003.5
20260504212044 64 178 3.0 7.0 0.00 0.00 0.00 41 1003.6
20260504211557 65 178 3.0 8.0 0.00 0.00 0.00 41 1003.5
20260504211044 65 178 1.0 8.0 0.00 0.00 0.00 41 1003.5
20260504210545 64 178 4.0 13.0 0.00 0.00 0.00 43 1003.6
20260504210101 64 210 4.0 13.0 0.00 0.00 0.00 42 1003.6
20260504205544 64 259 2.0 9.0 0.00 0.00 0.00 45 1003.6
20260504205044 63 270 4.0 9.0 0.00 0.00 0.00 44 1003.6
20260504204550 64 265 2.0 7.0 0.00 0.00 0.00 44 1003.8
20260504204045 64 193 4.0 7.0 0.00 0.00 0.00 43 1003.8
20260504203545 63 178 2.0 12.0 0.00 0.00 0.00 45 1003.7
20260504203049 63 178 4.0 12.0 0.00 0.00 0.00 44 1003.7
20260504202545 63 178 2.0 6.0 0.00 0.00 0.00 47 1003.9
20260504202046 63 166 3.0 9.0 0.00 0.00 0.00 45 1003.8
20260504201549 63 226 1.0 10.0 0.00 0.00 0.00 45 1003.8
20260504201043 64 193 4.0 10.0 0.00 0.00 0.00 43 1003.8
20260504200543 65 178 2.0 6.0 0.00 0.00 0.00 44 1003.9
20260504200101 65 178 3.0 9.0 0.00 0.00 0.00 44 1003.7
20260504195544 64 178 2.0 10.0 0.00 0.00 0.00 45 1003.7
20260504195043 64 178 4.0 10.0 0.00 0.00 0.00 45 1003.8
20260504194551 63 178 5.0 10.0 0.00 0.00 0.00 44 1004.0
20260504194044 64 178 5.0 10.0 0.00 0.00 0.00 45 1004.1
20260504193545 63 178 3.0 10.0 0.00 0.00 0.00 45 1003.7
20260504193050 63 235 3.0 10.0 0.00 0.00 0.00 46 1003.9
20260504192545 62 155 4.0 8.0 0.00 0.00 0.00 49 1004.0
20260504192048 62 178 3.0 9.0 0.00 0.00 0.00 49 1004.0
20260504191605 62 178 3.0 9.0 0.00 0.00 0.00 44 1004.2
20260504191045 62 276 4.0 8.0 0.00 0.00 0.00 47 1004.4
20260504190542 63 193 3.0 7.0 0.00 0.00 0.00 45 1004.2
20260504190049 63 193 4.0 7.0 0.00 0.00 0.00 47 1004.2
20260504185544 62 202 3.0 7.0 0.00 0.00 0.00 45 1004.3
20260504185042 63 203 2.0 10.0 0.00 0.00 0.00 46 1004.4
20260504184549 62 277 2.0 10.0 0.00 0.00 0.00 47 1004.4
20260504184043 62 278 4.0 9.0 0.00 0.00 0.00 47 1004.5
20260504183543 62 247 3.0 10.0 0.00 0.00 0.00 47 1004.4
20260504183050 62 283 5.0 12.0 0.00 0.00 0.00 46 1004.5
20260504182542 63 274 4.0 12.0 0.00 0.00 0.00 48 1004.6
20260504182043 62 272 4.0 14.0 0.00 0.00 0.00 47 1004.7
20260504181553 62 245 5.0 14.0 0.00 0.00 0.00 48 1004.6
20260504181042 62 139 4.0 10.0 0.00 0.00 0.00 47 1004.7
20260504180544 61 167 4.0 10.0 0.00 0.00 0.00 51 1004.4
20260504180051 62 178 3.0 9.0 0.00 0.00 0.00 47 1004.5
20260504175543 62 178 3.0 8.0 0.00 0.00 0.00 46 1004.6
20260504175045 62 193 3.0 8.0 0.00 0.00 0.00 48 1004.7
20260504174556 62 250 3.0 15.0 0.00 0.00 0.00 50 1004.6
20260504174043 61 261 3.0 15.0 0.00 0.00 0.00 48 1004.7
20260504173545 60 292 3.0 8.0 0.00 0.00 0.00 48 1004.8
20260504173054 60 278 3.0 8.0 0.00 0.00 0.00 51 1004.8
20260504172542 60 281 3.0 8.0 0.00 0.00 0.00 53 1004.9
20260504172043 59 193 3.0 10.0 0.00 0.00 0.00 50 1004.7
20260504171552 59 193 4.0 10.0 0.00 0.00 0.00 54 1004.8
20260504171042 59 193 3.0 7.0 0.00 0.00 0.00 53 1005.0
20260504170544 58 227 2.0 6.0 0.00 0.00 0.00 52 1004.9
20260504151047 51 195 2.0 7.0 0.00 0.00 0.00 59 1005.4
20260504150544 51 255 2.0 7.0 0.00 0.00 0.00 59 1005.3
20260504141045 53 240 2.0 5.0 0.00 0.00 0.00 56 1004.9
20260504140546 52 248 2.0 11.0 0.00 0.00 0.00 60 1004.9
20260504130547 50 255 2.0 8.0 0.00 0.00 0.00 60 1005.1
20260504120119 47 201 1.0 6.0 0.00 0.00 0.00 69 1005.5
20260504110542 43 203 0.0 2.0 0.00 0.00 0.00 84 1005.7
20260504100545 41 193 0.0 2.0 0.00 0.00 0.00 87 1006.0
20260504081554 41 247 0.0 3.0 0.00 0.00 0.00 85 1005.7
20260504081050 41 69 1.0 3.0 0.00 0.00 0.00 86 1005.8
20260504080545 41 178 1.0 2.0 0.00 0.00 0.00 86 1005.9
20260504050547 41 178 0.0 5.0 0.00 0.00 0.00 60 1006.3
20260504045550 41 178 1.0 5.0 0.00 0.00 0.00 58 1006.5
20260504045047 41 158 2.0 4.0 0.00 0.00 0.00 57 1006.5
20260504044551 41 0 0.0 4.0 0.00 0.00 0.00 57 1006.4
20260504044047 41 266 0.0 7.0 0.00 0.00 0.00 57 1006.6
20260504043547 41 193 1.0 7.0 0.00 0.00 0.00 58 1006.5
20260504043110 41 193 0.0 3.0 0.00 0.00 0.00 58 1006.6
20260504042546 40 193 0.0 3.0 0.00 0.00 0.00 59 1006.6
20260504042048 40 178 0.0 5.0 0.00 0.00 0.00 59 1006.7
20260504041548 40 146 0.0 5.0 0.00 0.00 0.00 59 1006.7
20260504041045 39 0 1.0 5.0 0.00 0.00 0.00 57 1006.6
20260504040548 39 142 0.0 2.0 0.00 0.00 0.00 58 1006.6
20260504040058 39 0 0.0 2.0 0.00 0.00 0.00 63 1006.6
20260504035544 39 0 0.0 2.0 0.00 0.00 0.00 59 1006.7
20260504035047 39 94 0.0 2.0 0.00 0.00 0.00 59 1006.6